| time (UTC) | temp F | wind direction | speed MPH | gust MPH | rain 1hr in | rain 24hr in | rain mn in | humidity % | barometer mb |
| 20260506061551 | 62 | 1.0 | 1.0 | 0.00 | 0.00 | 0.00 | 74 | 1013.7 | |
| 20260506044603 | 56 | 64 | 1.0 | 3.0 | 0.00 | 0.00 | 0.00 | 78 | 1013.6 |
| 20260506043056 | 56 | 0 | 0.0 | 0.0 | 0.00 | 0.00 | 0.00 | 80 | 1013.5 |
| 20260506041554 | 55 | 0 | 0.0 | 3.0 | 0.00 | 0.00 | 0.00 | 79 | 1013.4 |
| 20260506040052 | 54 | 0 | 0.0 | 2.0 | 0.00 | 0.00 | 0.00 | 80 | 1013.4 |
| 20260506034554 | 54 | 151 | 0.0 | 1.0 | 0.00 | 0.00 | 0.00 | 80 | 1013.4 |
| 20260506033053 | 53 | 0 | 0.0 | 0.0 | 0.00 | 0.00 | 0.00 | 1013.4 | |
| 20260506031555 | 0 | 0.0 | 0.0 | 0.00 | 0.00 | 0.00 | 1013.3 | ||
| 20260506030051 | 0 | 0.0 | 0.0 | 0.00 | 0.00 | 0.00 | 1013.3 | ||
| 20260506024551 | 0 | 0 | 0.0 | 0.0 | 0.00 | 0.00 | 0.00 | 82 | 1013.1 |
| 20260506023047 | 0 | 0.0 | 0.0 | 0.00 | 0.00 | 0.00 | 1013.0 | ||
| 20260506021553 | 0 | 0.0 | 0.0 | 0.00 | 0.00 | 0.00 | 1012.9 | ||
| 20260506020048 | 51 | 0.0 | 0.0 | 0.00 | 0.00 | 0.00 | 81 | 1012.9 | |
| 20260506014550 | 51 | 0 | 0.0 | 0.0 | 0.00 | 0.00 | 0.00 | 79 | 1012.6 |
| 20260506013048 | 52 | 184 | 0.0 | 0.0 | 0.00 | 0.00 | 0.00 | 79 | 1012.5 |
| 20260506011550 | 53 | 0 | 0.0 | 3.0 | 0.00 | 0.00 | 0.00 | 79 | 1012.4 |
| 20260506010054 | 52 | 202 | 1.0 | 3.0 | 0.00 | 0.00 | 0.00 | 78 | 1012.3 |
| 20260506004552 | 52 | 0 | 0.0 | 2.0 | 0.00 | 0.00 | 0.00 | 78 | 1012.2 |
| 20260506003049 | 52 | 146 | 3.0 | 3.0 | 0.00 | 0.00 | 0.00 | 80 | 1012.3 |
| 20260506001600 | 52 | 104 | 2.0 | 4.0 | 0.00 | 0.00 | 0.00 | 80 | 1012.2 |
| 20260506000049 | 52 | 104 | 1.0 | 3.0 | 0.00 | 0.00 | 0.00 | 78 | 1012.1 |
| 20260505234606 | 0 | 0.0 | 0.0 | 0.00 | 0.00 | 0.00 | 1012.1 | ||
| 20260505233049 | 0 | 2.0 | 3.0 | 0.00 | 0.00 | 0.00 | 75 | 1012.1 | |
| 20260505231545 | 0 | 0.0 | 0.0 | 0.00 | 0.00 | 0.00 | 73 | 1012.2 | |
| 20260505230046 | 0 | 0.0 | 0.0 | 0.00 | 0.00 | 0.00 | 1012.2 | ||
| 20260505224547 | 57 | 0 | 1.0 | 3.0 | 0.00 | 0.00 | 0.00 | 71 | 1012.2 |
| 20260505223105 | 0 | 263 | 1.0 | 1.0 | 0.00 | 0.00 | 0.00 | 1012.3 | |
| 20260505221549 | 0 | 0.0 | 0.0 | 0.00 | 0.00 | 0.00 | 1012.3 | ||
| 20260505220048 | 63 | 2.0 | 5.0 | 0.00 | 0.00 | 0.00 | 61 | 1012.2 | |
| 20260505214554 | 64 | 298 | 3.0 | 7.0 | 0.00 | 0.00 | 0.00 | 59 | 1012.3 |
| 20260505213052 | 65 | 278 | 3.0 | 7.0 | 0.00 | 0.00 | 0.00 | 58 | 1012.3 |
| 20260505211601 | 67 | 292 | 4.0 | 4.0 | 0.00 | 0.00 | 0.00 | 54 | 1012.3 |
| 20260505210051 | 67 | 286 | 7.0 | 10.0 | 0.00 | 0.00 | 0.00 | 53 | 1012.3 |
| 20260505204549 | 68 | 288 | 7.0 | 13.0 | 0.00 | 0.00 | 0.00 | 51 | 1012.1 |
| 20260505203114 | 69 | 275 | 8.0 | 13.0 | 0.00 | 0.00 | 0.00 | 51 | 1011.8 |
| 20260505201552 | 69 | 272 | 6.0 | 12.0 | 0.00 | 0.00 | 0.00 | 49 | 1011.7 |
| 20260505200049 | 70 | 259 | 3.0 | 10.0 | 0.00 | 0.00 | 0.00 | 44 | 1011.5 |
| 20260505194552 | 70 | 286 | 4.0 | 12.0 | 0.00 | 0.00 | 0.00 | 42 | 1011.5 |
| 20260505193047 | 68 | 263 | 0.0 | 0.0 | 0.00 | 0.00 | 0.00 | 49 | 1011.2 |
| 20260505191550 | 0 | 0.0 | 0.0 | 0.00 | 0.00 | 0.00 | 49 | 1010.8 | |
| 20260505190050 | 69 | 0 | 0.0 | 0.0 | 0.00 | 0.00 | 0.00 | 45 | 1010.7 |
| 20260505184552 | 69 | 0.0 | 0.0 | 0.00 | 0.00 | 0.00 | 44 | 1010.7 | |
| 20260505183048 | 70 | 0.0 | 0.0 | 0.00 | 0.00 | 0.00 | 44 | 1010.7 | |
| 20260505181545 | 71 | 0 | 0.0 | 0.0 | 0.00 | 0.00 | 0.00 | 43 | 1010.6 |
| 20260505180048 | 73 | 0 | 0.0 | 1.0 | 0.00 | 0.00 | 0.00 | 40 | 1010.4 |
| 20260505174543 | 74 | 177 | 1.0 | 2.0 | 0.00 | 0.00 | 0.00 | 40 | 1010.3 |
| 20260505173050 | 74 | 0 | 0.0 | 2.0 | 0.00 | 0.00 | 0.00 | 39 | 1010.1 |
| 20260505171546 | 74 | 177 | 1.0 | 4.0 | 0.00 | 0.00 | 0.00 | 40 | 1010.2 |
| 20260505170045 | 75 | 108 | 1.0 | 3.0 | 0.00 | 0.00 | 0.00 | 42 | 1010.0 |
| 20260505164547 | 77 | 134 | 2.0 | 3.0 | 0.00 | 0.00 | 0.00 | 36 | 1010.1 |
| 20260505163051 | 78 | 151 | 2.0 | 4.0 | 0.00 | 0.00 | 0.00 | 35 | 1010.2 |
| 20260505161551 | 78 | 163 | 2.0 | 4.0 | 0.00 | 0.00 | 0.00 | 36 | 1010.2 |
| 20260505153054 | 79 | 164 | 2.0 | 5.0 | 0.00 | 0.00 | 0.00 | 32 | 1010.6 |
| 20260505151549 | 79 | 148 | 5.0 | 10.0 | 0.00 | 0.00 | 0.00 | 34 | 1010.6 |
| 20260505124550 | 81 | 167 | 2.0 | 9.0 | 0.00 | 0.00 | 0.00 | 34 | 1012.2 |
| 20260505123053 | 79 | 181 | 3.0 | 10.0 | 0.00 | 0.00 | 0.00 | 36 | 1012.4 |
| 20260505121551 | 80 | 126 | 3.0 | 10.0 | 0.00 | 0.00 | 0.00 | 31 | 1012.6 |
| 20260505114551 | 81 | 217 | 2.0 | 8.0 | 0.00 | 0.00 | 0.00 | 28 | 1012.8 |
| 20260505113100 | 81 | 214 | 1.0 | 8.0 | 0.00 | 0.00 | 0.00 | 29 | 1013.0 |
| 20260505111551 | 81 | 186 | 2.0 | 8.0 | 0.00 | 0.00 | 0.00 | 33 | 1013.3 |
| 20260505101556 | 78 | 247 | 2.0 | 9.0 | 0.00 | 0.00 | 0.00 | 40 | 1013.6 |
| 20260505100046 | 78 | 223 | 2.0 | 9.0 | 0.00 | 0.00 | 0.00 | 39 | 1013.7 |
| 20260505094552 | 75 | 176 | 4.0 | 10.0 | 0.00 | 0.00 | 0.00 | 44 | 1013.9 |
| 20260505093055 | 75 | 281 | 2.0 | 8.0 | 0.00 | 0.00 | 0.00 | 43 | 1014.0 |
| 20260505091550 | 74 | 199 | 2.0 | 9.0 | 0.00 | 0.00 | 0.00 | 44 | 1014.1 |
| 20260505090056 | 72 | 155 | 2.0 | 9.0 | 0.00 | 0.00 | 0.00 | 49 | 1014.3 |
| 20260505084547 | 71 | 115 | 2.0 | 9.0 | 0.00 | 0.00 | 0.00 | 50 | 1014.4 |
| 20260505083102 | 71 | 150 | 2.0 | 10.0 | 0.00 | 0.00 | 0.00 | 50 | 1014.5 |
| 20260505081551 | 70 | 148 | 3.0 | 6.0 | 0.00 | 0.00 | 0.00 | 50 | 1014.5 |
| 20260505080047 | 69 | 161 | 4.0 | 9.0 | 0.00 | 0.00 | 0.00 | 51 | 1014.6 |
| 20260505074552 | 68 | 148 | 6.0 | 8.0 | 0.00 | 0.00 | 0.00 | 51 | 1014.6 |
| 20260505073055 | 67 | 157 | 3.0 | 7.0 | 0.00 | 0.00 | 0.00 | 52 | 1014.6 |
| 20260505071549 | 66 | 163 | 4.0 | 7.0 | 0.00 | 0.00 | 0.00 | 50 | 1014.5 |
| 20260505064555 | 65 | 0 | 0.0 | 4.0 | 0.00 | 0.00 | 0.00 | 55 | 1014.6 |